Madera, CA

7:28 PM PDT on October 19, 2017 (GMT -0700)
Madera Municipal

Weather History for KMAE - November, 2012

Change the Weather History Date:

Friday, November 16, 2012

  Actual Average Record
Temperature  
Mean Temperature 59 °F 52 °F  
Max Temperature 65 °F 64 °F 81 °F (2008)
Min Temperature 52 °F 41 °F 36 °F (2009)
Degree Days  
Heating Degree Days 6    
Month to date heating degree days 158  
Since 1 July heating degree days 235  
Cooling Degree Days 0    
Month to date cooling degree days 0  
Year to date cooling degree days 1737  
Growing Degree Days 8 (Base 50)    
Moisture  
Dew Point 49 °F    
Average Humidity 67    
Maximum Humidity 86    
Minimum Humidity 48    
Precipitation  
Precipitation 0.12 in 0.04 in 0.12 in (2012)
Month to date precipitation 0.28 0.66  
Year to date precipitation 6.61 9.83  
Since 1 July precipitation 0.39  
Snow  
Snow 0.00 in - - ()
Month to date snowfall 0.0  
Since 1 July snowfall 0.0  
Since 1 September snowfall 0.0  
Snow Depth 0.00 in    
Sea Level Pressure  
Sea Level Pressure 30.00 in    
Wind  
Wind Speed 5 mph (ESE)    
Max Wind Speed 13 mph    
Max Gust Speed -    
Visibility 8 miles    
Events Rain    
T = Trace of Precipitation, MM = Missing Value Source: NWS Daily Summary

Daily Weather History Graph

Daily Weather History Graph

Search for Another Location

Airport or City:

Trip Planner

Search our weather history database for the weather conditions in past years. The results will help you decide how hot, cold, wet, or windy it might be!

Date:

Astronomy

Nov. 16, 2012 Rise Set
Actual Time 6:40 AM PST 4:49 PM PST
Civil Twilight 6:12 AM PST 5:17 PM PST
Nautical Twilight 5:41 AM PST 5:48 PM PST
Astronomical Twilight 5:10 AM PST 6:19 PM PST
Moon 9:38 AM PST (11/16) 7:56 PM PST (11/16)
Length of Visible Light 11h 04m
Length of Day
10h 09m
Waxing Crescent, 12% of the Moon is Illuminated
Nov 16
Waxing Crescent
Nov 20
First Quarter
Nov 28
Full
Dec 6
Last Quarter
Dec 13
New

Hourly Weather History & Observations

Time (PST) Temp. Dew Point Humidity Pressure Visibility Wind Dir Wind Speed Gust Speed Precip Events Conditions
12:53 AM 57.0 °F 42.1 °F 57% 30.00 in 6.0 mi North - - 0.00 in   Haze
1:53 AM 54.0 °F 46.9 °F 77% 30.01 in 5.0 mi North - - 0.01 in   Haze
2:53 AM 55.9 °F 46.0 °F 69% 30.01 in 8.0 mi North - - N/A   Overcast
3:53 AM 55.9 °F 46.0 °F 69% 30.00 in 9.0 mi North - - N/A   Overcast
4:53 AM 53.1 °F 45.0 °F 74% 30.00 in 9.0 mi North - - N/A   Overcast
5:53 AM 53.1 °F 46.9 °F 80% 30.01 in 8.0 mi North - - N/A   Overcast
6:53 AM 54.0 °F 45.0 °F 72% 30.01 in 7.0 mi East 5.8 mph - 0.00 in   Overcast
7:53 AM 55.9 °F 46.9 °F 72% 30.05 in 5.0 mi ENE 4.6 mph - 0.02 in Rain Rain
8:53 AM 57.9 °F 50.0 °F 75% 30.06 in 10.0 mi ESE 5.8 mph - 0.01 in   Overcast
9:53 AM 60.1 °F 51.1 °F 72% 30.06 in 7.0 mi Calm Calm - 0.00 in Rain Light Rain
10:53 AM 61.0 °F 53.1 °F 75% 30.06 in 8.0 mi West 6.9 mph - 0.01 in Rain Light Rain
11:53 AM 62.1 °F 51.1 °F 67% 30.03 in 10.0 mi Calm Calm - 0.01 in   Overcast
12:53 PM 63.0 °F 52.0 °F 67% 30.01 in 10.0 mi NE 5.8 mph - 0.00 in   Mostly Cloudy
1:53 PM 63.0 °F 52.0 °F 67% 29.99 in 10.0 mi NNE 4.6 mph - 0.00 in   Overcast
2:53 PM 64.0 °F 50.0 °F 60% 29.99 in 10.0 mi Calm Calm - N/A   Overcast
3:53 PM 64.0 °F 45.0 °F 50% 29.98 in 10.0 mi SSE 6.9 mph - N/A   Overcast
4:53 PM 62.1 °F 48.9 °F 62% 29.98 in 10.0 mi SSE 10.4 mph - N/A   Overcast
5:53 PM 57.9 °F 52.0 °F 81% 29.98 in 7.0 mi Calm Calm - 0.02 in Rain Light Rain
6:53 PM 57.9 °F 53.1 °F 84% 29.97 in 7.0 mi SE 6.9 mph - 0.03 in Rain Light Rain
7:53 PM 57.9 °F 53.1 °F 84% 29.96 in 6.0 mi ENE 4.6 mph - 0.01 in   Haze
8:53 PM 57.0 °F 52.0 °F 83% 29.96 in 8.0 mi East 8.1 mph - N/A   Partly Cloudy
9:53 PM 57.0 °F 51.1 °F 81% 29.98 in 8.0 mi SSE 9.2 mph - N/A   Overcast
10:53 PM 57.0 °F 50.0 °F 77% 29.97 in 10.0 mi SSE 9.2 mph - 0.00 in   Overcast
11:53 PM 57.0 °F 51.1 °F 81% 29.96 in 9.0 mi ESE 9.2 mph - 0.00 in Rain Light Rain